"Pseudo-MPEC" for a552043

Created 2020 Sep 19 21:07:43 UT using Find_Orb

Click here for an explanation of pseudo-MPECs

 
 Astrometry: 
     a552043 .C2020 01 26yk-m8Y/hCOuUJ6h.FFwAstrometryH?redacted;\\78$\_[+KNC807
     a552043 .C2020 01 27^7wLclick[L!jP7hereX^7X5_wKufor4d+explanationF9#[D(c807

Station data:
(807) Cerro Tololo Observatory, La Serena  (S30.169136 W70.805900)  Chile.

Orbital elements:  a552043
   Perihelion 2020 Jan 29.955211 +/- 1133 TT = 22:55:30 (JD 2458878.455211)
Epoch 2020 Jan 27.0 TT = JDT 2458875.5   Earth MOID: 0.5530   AutoNEOCP
M 359.29527718 +/- 53               (J2000 ecliptic)
n   0.23846787 +/- 0.129            Peri.  277.62081 +/- 80
a   2.57542826 +/- 0.926            Node   210.41757 +/- 43
e   0.4057199 +/- 0.218             Incl.    4.25382 +/- 52
P   4.13                   H 22.6   G  0.15   U 11.5  SR
q 1.53052550 +/- 2.48    Q 3.62033101 +/- 200
From 2 observations 2020 Jan. 26-27 (25.0 hr); mean residual 0".03
Residuals in arcseconds: 
200126 807  .01-  .04-    200127 807  .01-  .04-    

Ephemerides (geocentric):
Date (UTC) HH   RA              Dec         delta   r     elong  mag " sig PA
---- -- -- --  -------------   -----------  ------ ------ -----  --- ---- ---
2020 09 19 21  14 15 04.765   -12 19 24.25  3.0687 2.3682  38.6 27.7  37d  12
2020 09 19 22  14 15 09.319   -12 19 45.80  3.0692 2.3684  38.6 27.7  37d  12
2020 09 19 23  14 15 13.874   -12 20 07.36  3.0697 2.3686  38.6 27.7  37d  12
2020 09 20 00  14 15 18.428   -12 20 28.90  3.0702 2.3688  38.5 27.7  37d  12
2020 09 20 01  14 15 22.983   -12 20 50.44  3.0707 2.3690  38.5 27.7  37d  12
2020 09 20 02  14 15 27.537   -12 21 11.98  3.0712 2.3692  38.5 27.7  37d  12
2020 09 20 03  14 15 32.092   -12 21 33.51  3.0717 2.3694  38.5 27.7  37d  12
2020 09 20 04  14 15 36.646   -12 21 55.03  3.0722 2.3696  38.5 27.7  37d  12
2020 09 20 05  14 15 41.200   -12 22 16.55  3.0727 2.3698  38.4 27.8  37d  12
2020 09 20 06  14 15 45.755   -12 22 38.06  3.0732 2.3700  38.4 27.8  37d  12
2020 09 20 07  14 15 50.309   -12 22 59.57  3.0738 2.3701  38.4 27.8  37d  12
2020 09 20 08  14 15 54.864   -12 23 21.07  3.0743 2.3703  38.4 27.8  37d  12
2020 09 20 09  14 15 59.418   -12 23 42.56  3.0748 2.3705  38.3 27.8  37d  12
2020 09 20 10  14 16 03.972   -12 24 04.05  3.0753 2.3707  38.3 27.8  37d  12
2020 09 20 11  14 16 08.527   -12 24 25.53  3.0758 2.3709  38.3 27.8  37d  12
2020 09 20 12  14 16 13.081   -12 24 47.01  3.0763 2.3711  38.3 27.8  37d  12
2020 09 20 13  14 16 17.635   -12 25 08.48  3.0768 2.3713  38.3 27.8  37d  12
2020 09 20 14  14 16 22.190   -12 25 29.94  3.0773 2.3715  38.2 27.8  37d  12
2020 09 20 15  14 16 26.744   -12 25 51.40  3.0778 2.3717  38.2 27.8  37d  12
2020 09 20 16  14 16 31.298   -12 26 12.86  3.0783 2.3719  38.2 27.8  37d  12
2020 09 20 17  14 16 35.852   -12 26 34.31  3.0788 2.3721  38.2 27.8  37d  12
2020 09 20 18  14 16 40.407   -12 26 55.75  3.0793 2.3723  38.2 27.8  37d  12
2020 09 20 19  14 16 44.961   -12 27 17.18  3.0798 2.3725  38.1 27.8  37d  12
2020 09 20 20  14 16 49.515   -12 27 38.61  3.0803 2.3727  38.1 27.8  37d  12
2020 09 20 21  14 16 54.070   -12 28 00.04  3.0808 2.3729  38.1 27.8  37d  12
2020 09 20 22  14 16 58.624   -12 28 21.46  3.0813 2.3730  38.1 27.8  37d  12
2020 09 20 23  14 17 03.178   -12 28 42.87  3.0818 2.3732  38.0 27.8  37d  12
2020 09 21 00  14 17 07.732   -12 29 04.28  3.0823 2.3734  38.0 27.8  37d  12
2020 09 21 01  14 17 12.286   -12 29 25.68  3.0828 2.3736  38.0 27.8  37d  12
2020 09 21 02  14 17 16.841   -12 29 47.07  3.0833 2.3738  38.0 27.8  37d  12
2020 09 21 03  14 17 21.395   -12 30 08.46  3.0838 2.3740  38.0 27.8  37d  12
2020 09 21 04  14 17 25.949   -12 30 29.85  3.0843 2.3742  37.9 27.8  37d  12
2020 09 21 05  14 17 30.503   -12 30 51.23  3.0848 2.3744  37.9 27.8  37d  12
2020 09 21 06  14 17 35.057   -12 31 12.60  3.0853 2.3746  37.9 27.8  37d  12
2020 09 21 07  14 17 39.611   -12 31 33.96  3.0858 2.3748  37.9 27.8  37d  12
2020 09 21 08  14 17 44.165   -12 31 55.32  3.0863 2.3750  37.9 27.8  37d  12
2020 09 21 09  14 17 48.719   -12 32 16.68  3.0868 2.3752  37.8 27.8  37d  12
2020 09 21 10  14 17 53.274   -12 32 38.03  3.0873 2.3754  37.8 27.8  37d  12
2020 09 21 11  14 17 57.828   -12 32 59.37  3.0878 2.3756  37.8 27.8  37d  12
2020 09 21 12  14 18 02.382   -12 33 20.71  3.0883 2.3757  37.8 27.8  38d  12
2020 09 21 13  14 18 06.936   -12 33 42.04  3.0888 2.3759  37.8 27.8  38d  12
2020 09 21 14  14 18 11.490   -12 34 03.36  3.0893 2.3761  37.7 27.8  38d  12
2020 09 21 15  14 18 16.044   -12 34 24.68  3.0898 2.3763  37.7 27.8  38d  12
2020 09 21 16  14 18 20.598   -12 34 45.99  3.0903 2.3765  37.7 27.8  38d  12
2020 09 21 17  14 18 25.152   -12 35 07.30  3.0908 2.3767  37.7 27.8  38d  12
2020 09 21 18  14 18 29.706   -12 35 28.60  3.0913 2.3769  37.6 27.8  38d  12
2020 09 21 19  14 18 34.260   -12 35 49.90  3.0918 2.3771  37.6 27.8  38d  12
2020 09 21 20  14 18 38.814   -12 36 11.19  3.0923 2.3773  37.6 27.8  38d  12